ONEWEB-0235, 48771

Orbit data source: Space-Track

ONEWEB-0235, 48771 is a payload satellite owned by One Web (NAA) (UK) in LEO that was launched on Fri, 28 May 2021 UTC via a SOYUZ-2-1B launch vehicle from the Vostochny Cosmodrome (VOSTO). Payload-class satellites include a variety of spacecraft equipped with specific instruments for various scientific and technological missions. These include communications satellites like Starlink; space stations such as the ISS; scientific satellites like the Hubble; Earth observation satellites from companies like Planet Labs, Umbra, and HawkEye 360; GPS; miniature CubeSats for education and research; and military/defense satellites.

Loading next visibility...
Identifier
48771, 2021-045E
Orbit
LEO
Country
Flag of UKUK
Related business
Manufacturer
One Web
Mission
Operational Commercial Communications
Bus & Motor
ARROW, Unknown motor
Mass
148 kg wet, ~140 kg dry
Launch date (UTC)
2021-05-28 (5 years ago)
Launch vehicle
SOYUZ-2-1B
Launch site
Vostochny Cosmodrome (VOSTO)
Object type
Payload
Rocket body
Debris
Shape & HBR
Trap Box + 2 Pan, 6.7 m
Radar Cross Section
3.464 m², Large (>1 m²)

Expand to show TLE details & history
Last TLE update: 2 days ago

TLE from 2 days ago
0 ONEWEB-0235
1 48771U 21045E   26171.47482756  .00000111  00000-0  26062-3 0  9991
2 48771  87.9011 258.5364 0001711 110.5130 249.6184 13.15549033244816
Epoch: 2026-06-20T11:23Z
TLE epoch observation values (Epoch: 2026-06-20T11:23:45.101Z)
Latitude
-0.00001°
Longitude
178.90955°
Altitude
1,205.116 km
Speed
7.251 km/s
True Right ascension
17h 14m 08s
True Declination
0° 00' 00"
Sunlit
Object was in full shadow at epoch
Visualization orbit readout
Latitude
Unknown
Longitude
Unknown
Altitude
Unknown
Speed
Unknown
Apparent Right ascension
Unknown
Apparent Declination
Unknown
Sunlit
N/A
Visualization observer readout
Local Sidereal Time
21:39:44
Azimuth
Unknown
Elevation
Unknown
Doppler factor
Unknown
Orbital elements
Apogee altitude
1,200.177 km
Perigee altitude
1,197.585 km
Semi-major axis
7,577.018 km
Eccentricity
0.00017
Inclination
87.9011°
RAAN
258.5364°
Arg. of periapsis
110.513°
True anomaly
249.60002°
Mean anomaly
249.6184°
Eccentric anomaly
249.60921°
Mean motion
3.29076 °/min
Orbital period
109.4 mins
BSTAR
0.00026062
Loading maneuver chart data...
Computing Atmospheric mass density...
Loading historical data...
Loading historical data...
Loading historical data...
Loading historical data...
Loading historical data...
Loading historical data...
Loading historical data...

Documentation

Showing up to 5 results
|